| time (UTC) | temp F | wind direction | speed knots | gust knots | rain 1hr in | rain 24hr in | rain mn in | humidity % | barometer mb |
| 20260906115933 | 78 | 189 | 0.9 | 3.5 | 0.00 | 0.00 | 0.00 | 94 | 1012.6 |
| 20260906115434 | 78 | 189 | 0.9 | 3.5 | 0.00 | 0.00 | 0.00 | 94 | 1012.5 |
| 20260906114932 | 78 | 155 | 1.7 | 3.5 | 0.00 | 0.00 | 0.00 | 94 | 1012.5 |
| 20260906114429 | 78 | 264 | 0.9 | 3.5 | 0.00 | 0.00 | 0.00 | 94 | 1012.5 |
| 20260906113929 | 78 | 264 | 0.9 | 2.6 | 0.00 | 0.00 | 0.00 | 94 | 1012.3 |
| 20260906113429 | 78 | 264 | 0.9 | 1.7 | 0.00 | 0.00 | 0.00 | 94 | 1012.2 |
| 20260906112930 | 77 | 264 | 0.9 | 2.6 | 0.00 | 0.00 | 0.00 | 94 | 1012.1 |
| 20260906112430 | 77 | 264 | 0.9 | 2.6 | 0.00 | 0.00 | 0.00 | 94 | 1012.2 |
| 20260906111415 | 77 | 264 | 0.9 | 3.5 | 0.00 | 0.00 | 0.00 | 94 | 1012.1 |
| 20260906110910 | 77 | 264 | 0.9 | 2.6 | 0.00 | 0.00 | 0.00 | 94 | 1012.0 |
| 20260906110404 | 77 | 264 | 0.9 | 2.6 | 0.00 | 0.00 | 0.00 | 93 | 1011.9 |
| 20260906105903 | 78 | 264 | 0.9 | 1.7 | 0.00 | 0.00 | 0.00 | 93 | 1011.9 |
| 20260906104904 | 78 | 264 | 0.0 | 1.7 | 0.00 | 0.00 | 0.00 | 93 | 1012.0 |
| 20260906104407 | 78 | 264 | 0.0 | 1.7 | 0.00 | 0.00 | 0.00 | 93 | 1012.1 |
| 20260906103905 | 78 | 264 | 0.0 | 0.0 | 0.00 | 0.00 | 0.00 | 93 | 1011.9 |
| 20260906103403 | 78 | 264 | 0.0 | 0.0 | 0.00 | 0.00 | 0.00 | 93 | 1011.9 |
| 20260906102406 | 78 | 264 | 0.0 | 0.0 | 0.00 | 0.00 | 0.00 | 93 | 1011.8 |
| 20260906101904 | 78 | 264 | 0.0 | 0.0 | 0.00 | 0.00 | 0.00 | 93 | 1011.9 |
| 20260906101401 | 78 | 264 | 0.0 | 0.0 | 0.00 | 0.00 | 0.00 | 93 | 1011.9 |
| 20260906100901 | 78 | 264 | 0.0 | 0.0 | 0.00 | 0.00 | 0.00 | 93 | 1011.7 |
| 20260906100403 | 78 | 264 | 0.0 | 0.0 | 0.00 | 0.00 | 0.00 | 93 | 1011.7 |
| 20260906095908 | 78 | 264 | 0.0 | 0.0 | 0.00 | 0.00 | 0.00 | 93 | 1011.7 |
| 20260906095406 | 78 | 264 | 0.0 | 0.0 | 0.00 | 0.00 | 0.00 | 93 | 1011.6 |
| 20260906094902 | 78 | 264 | 0.0 | 0.0 | 0.00 | 0.00 | 0.00 | 93 | 1011.6 |
| 20260906093903 | 78 | 264 | 0.0 | 0.0 | 0.00 | 0.00 | 0.00 | 93 | 1011.5 |
| 20260906093400 | 78 | 264 | 0.0 | 0.0 | 0.00 | 0.00 | 0.00 | 93 | 1011.3 |
| 20260906092403 | 78 | 264 | 0.0 | 0.0 | 0.00 | 0.00 | 0.00 | 93 | 1011.2 |
| 20260906091903 | 78 | 264 | 0.0 | 0.0 | 0.00 | 0.00 | 0.00 | 93 | 1011.3 |
| 20260906091353 | 78 | 264 | 0.0 | 0.0 | 0.00 | 0.00 | 0.00 | 93 | 1011.2 |
| 20260906090852 | 78 | 264 | 0.0 | 0.0 | 0.00 | 0.00 | 0.00 | 93 | 1011.2 |
| 20260906090350 | 78 | 264 | 0.0 | 0.0 | 0.00 | 0.00 | 0.00 | 93 | 1011.2 |
| 20260906085848 | 78 | 264 | 0.0 | 0.9 | 0.00 | 0.00 | 0.00 | 92 | 1011.1 |
| 20260906085347 | 78 | 264 | 0.0 | 0.9 | 0.00 | 0.00 | 0.00 | 92 | 1011.3 |
| 20260906084845 | 79 | 264 | 0.0 | 0.9 | 0.00 | 0.00 | 0.00 | 92 | 1011.2 |
| 20260906084344 | 79 | 264 | 0.0 | 1.7 | 0.00 | 0.00 | 0.00 | 92 | 1011.2 |
| 20260906083841 | 79 | 264 | 0.9 | 1.7 | 0.00 | 0.00 | 0.00 | 92 | 1011.3 |
| 20260906083340 | 79 | 264 | 0.9 | 1.7 | 0.00 | 0.00 | 0.00 | 92 | 1011.5 |
| 20260906082840 | 79 | 264 | 0.9 | 1.7 | 0.00 | 0.00 | 0.00 | 92 | 1011.5 |
| 20260906082339 | 79 | 264 | 0.9 | 2.6 | 0.00 | 0.00 | 0.00 | 92 | 1011.3 |
| 20260906081849 | 79 | 264 | 0.9 | 2.6 | 0.00 | 0.00 | 0.00 | 92 | 1011.2 |
| 20260906081344 | 79 | 264 | 1.7 | 2.6 | 0.00 | 0.00 | 0.00 | 92 | 1011.4 |
| 20260906080837 | 79 | 264 | 0.9 | 2.6 | 0.00 | 0.00 | 0.00 | 92 | 1011.6 |
| 20260906080336 | 79 | 264 | 0.0 | 1.7 | 0.00 | 0.00 | 0.00 | 92 | 1011.5 |
| 20260906075836 | 79 | 264 | 0.0 | 0.0 | 0.00 | 0.00 | 0.00 | 92 | 1011.3 |
| 20260906075331 | 79 | 264 | 0.0 | 0.0 | 0.00 | 0.00 | 0.00 | 92 | 1011.3 |
| 20260906074830 | 79 | 264 | 0.0 | 0.0 | 0.00 | 0.00 | 0.00 | 92 | 1011.2 |
| 20260906074330 | 79 | 264 | 0.0 | 0.0 | 0.00 | 0.00 | 0.00 | 92 | 1011.3 |
| 20260906073831 | 79 | 264 | 0.0 | 0.0 | 0.00 | 0.00 | 0.00 | 92 | 1011.4 |
| 20260906073327 | 79 | 264 | 0.0 | 0.9 | 0.00 | 0.00 | 0.00 | 92 | 1011.3 |
| 20260906072824 | 79 | 264 | 0.0 | 0.9 | 0.00 | 0.00 | 0.00 | 92 | 1011.3 |
| 20260906072325 | 79 | 264 | 0.9 | 1.7 | 0.00 | 0.00 | 0.00 | 92 | 1011.3 |
| 20260906071828 | 79 | 264 | 0.9 | 1.7 | 0.00 | 0.00 | 0.00 | 92 | 1011.4 |
| 20260906071322 | 79 | 264 | 0.0 | 1.7 | 0.00 | 0.00 | 0.00 | 92 | 1011.4 |
| 20260906070817 | 79 | 264 | 0.0 | 0.9 | 0.00 | 0.00 | 0.00 | 91 | 1011.4 |
| 20260906070317 | 79 | 264 | 0.9 | 1.7 | 0.00 | 0.00 | 0.00 | 91 | 1011.3 |
| 20260906065813 | 79 | 264 | 0.9 | 2.6 | 0.00 | 0.00 | 0.00 | 91 | 1011.3 |
| 20260906065607 | 79 | 264 | 0.9 | 2.6 | 0.00 | 0.00 | 0.00 | 91 | 1011.5 |
| 20260906065410 | 80 | 264 | 1.7 | 2.6 | 0.00 | 0.00 | 0.00 | 91 | 1011.4 |
| 20260906065210 | 80 | 264 | 0.9 | 2.6 | 0.00 | 0.00 | 0.00 | 91 | 1011.3 |
| 20260906065009 | 80 | 264 | 0.0 | 2.6 | 0.00 | 0.00 | 0.00 | 90 | 1011.3 |
| 20260906064816 | 80 | 264 | 0.0 | 1.7 | 0.00 | 0.00 | 0.00 | 90 | 1011.3 |
| 20260906064631 | 80 | 264 | 0.9 | 2.6 | 0.00 | 0.00 | 0.00 | 90 | 1011.4 |
| 20260906064444 | 80 | 264 | 1.7 | 5.2 | 0.00 | 0.00 | 0.00 | 90 | 1011.5 |
| 20260906064250 | 80 | 264 | 1.7 | 5.2 | 0.00 | 0.00 | 0.00 | 91 | 1011.4 |
| 20260906064102 | 80 | 267 | 0.9 | 3.5 | 0.00 | 0.00 | 0.00 | 91 | 1011.4 |
| 20260906063840 | 80 | 267 | 0.0 | 0.0 | 0.00 | 0.00 | 0.00 | 91 | 1011.5 |
| 20260906063247 | 80 | 267 | 0.0 | 0.0 | 0.00 | 0.00 | 0.00 | 92 | 1011.8 |
| 20260906063101 | 79 | 267 | 0.0 | 0.0 | 0.00 | 0.00 | 0.00 | 92 | 1011.9 |
| 20260906061657 | 79 | 267 | 0.0 | 0.0 | 0.00 | 0.00 | 0.00 | 92 | 1012.1 |
| 20260906061509 | 79 | 267 | 0.0 | 0.0 | 0.00 | 0.00 | 0.00 | 92 | 1012.0 |
| 20260906061325 | 79 | 267 | 0.0 | 0.0 | 0.00 | 0.00 | 0.00 | 92 | 1011.9 |
| 20260906061131 | 79 | 267 | 0.0 | 0.0 | 0.00 | 0.00 | 0.00 | 92 | 1012.0 |
| 20260906060935 | 79 | 267 | 0.0 | 0.0 | 0.00 | 0.00 | 0.00 | 92 | 1012.1 |
| 20260906060737 | 79 | 267 | 0.0 | 0.0 | 0.00 | 0.00 | 0.00 | 92 | 1012.0 |
| 20260906060530 | 80 | 267 | 0.0 | 0.0 | 0.00 | 0.00 | 0.00 | 92 | 1012.0 |
| 20260906035739 | 80 | 267 | 0.0 | 0.0 | 0.00 | 0.00 | 0.00 | 91 | 1012.3 |
| 20260906035235 | 80 | 267 | 0.0 | 0.0 | 0.00 | 0.00 | 0.00 | 91 | 1012.3 |
| 20260906034736 | 80 | 267 | 0.0 | 0.0 | 0.00 | 0.00 | 0.00 | 91 | 1012.4 |
| 20260906034228 | 80 | 267 | 0.0 | 0.0 | 0.00 | 0.00 | 0.00 | 91 | 1012.3 |
| 20260906033726 | 80 | 267 | 0.0 | 0.0 | 0.00 | 0.00 | 0.00 | 91 | 1012.4 |
| 20260906033225 | 80 | 267 | 0.0 | 0.0 | 0.00 | 0.00 | 0.00 | 90 | 1012.5 |
| 20260906032725 | 81 | 267 | 0.0 | 0.0 | 0.00 | 0.00 | 0.00 | 90 | 1012.4 |
| 20260906032223 | 81 | 267 | 0.0 | 0.0 | 0.00 | 0.00 | 0.00 | 90 | 1012.5 |
| 20260906031721 | 81 | 267 | 0.0 | 0.0 | 0.00 | 0.00 | 0.00 | 90 | 1012.6 |
| 20260906031220 | 81 | 267 | 0.0 | 0.0 | 0.00 | 0.00 | 0.00 | 90 | 1012.6 |
| 20260906030226 | 81 | 267 | 0.0 | 0.0 | 0.00 | 0.00 | 0.00 | 90 | 1012.6 |
| 20260906025717 | 81 | 267 | 0.0 | 0.0 | 0.00 | 0.00 | 0.00 | 90 | 1012.5 |
| 20260906025211 | 81 | 267 | 0.0 | 0.0 | 0.00 | 0.00 | 0.00 | 89 | 1012.6 |
| 20260906024710 | 81 | 267 | 0.0 | 0.0 | 0.00 | 0.00 | 0.00 | 89 | 1012.7 |
| 20260906024208 | 81 | 267 | 0.0 | 0.0 | 0.00 | 0.00 | 0.00 | 89 | 1012.5 |
| 20260906023710 | 81 | 267 | 0.0 | 0.0 | 0.00 | 0.00 | 0.00 | 89 | 1012.4 |
| 20260906023213 | 81 | 267 | 0.0 | 0.0 | 0.00 | 0.00 | 0.00 | 89 | 1012.5 |
| 20260906022203 | 82 | 267 | 0.0 | 0.0 | 0.00 | 0.00 | 0.00 | 88 | 1012.2 |
| 20260906021702 | 82 | 267 | 0.0 | 0.0 | 0.00 | 0.00 | 0.00 | 88 | 1012.4 |
| 20260906021201 | 82 | 267 | 0.0 | 0.0 | 0.00 | 0.00 | 0.00 | 88 | 1012.4 |
| 20260906020704 | 82 | 267 | 0.0 | 0.0 | 0.00 | 0.00 | 0.00 | 88 | 1012.2 |
| 20260906020201 | 82 | 267 | 0.0 | 0.0 | 0.00 | 0.00 | 0.00 | 88 | 1012.2 |
| 20260906015701 | 82 | 267 | 0.0 | 0.0 | 0.00 | 0.00 | 0.00 | 88 | 1012.2 |
| 20260906015201 | 82 | 267 | 0.0 | 0.0 | 0.00 | 0.00 | 0.00 | 87 | 1012.2 |
| 20260906014701 | 83 | 267 | 0.0 | 0.0 | 0.00 | 0.00 | 0.00 | 87 | 1012.3 |
| 20260906014206 | 83 | 267 | 0.0 | 0.0 | 0.00 | 0.00 | 0.00 | 86 | 1012.3 |
| 20260906013703 | 83 | 267 | 0.0 | 0.0 | 0.00 | 0.00 | 0.00 | 86 | 1012.2 |
| 20260906012701 | 83 | 267 | 0.0 | 0.0 | 0.00 | 0.00 | 0.00 | 86 | 1012.1 |
| 20260906011200 | 83 | 267 | 0.0 | 0.0 | 0.00 | 0.00 | 0.00 | 84 | 1012.0 |
| 20260906010700 | 84 | 267 | 0.0 | 0.0 | 0.00 | 0.00 | 0.00 | 84 | 1012.0 |
| 20260906010159 | 84 | 267 | 0.0 | 0.0 | 0.00 | 0.00 | 0.00 | 84 | 1011.8 |
| 20260906005657 | 84 | 267 | 0.0 | 0.0 | 0.00 | 0.00 | 0.00 | 83 | 1011.7 |
| 20260906005157 | 84 | 267 | 0.0 | 0.0 | 0.00 | 0.00 | 0.00 | 83 | 1011.6 |
| 20260906004657 | 85 | 267 | 0.0 | 0.0 | 0.00 | 0.00 | 0.00 | 83 | 1011.6 |
| 20260906004156 | 85 | 267 | 0.0 | 0.0 | 0.00 | 0.00 | 0.00 | 83 | 1011.4 |
| 20260906003656 | 85 | 267 | 0.0 | 0.0 | 0.00 | 0.00 | 0.00 | 82 | 1011.4 |
| 20260906002654 | 85 | 267 | 0.0 | 0.0 | 0.00 | 0.00 | 0.00 | 81 | 1011.5 |
| 20260906001156 | 86 | 267 | 0.0 | 0.0 | 0.00 | 0.00 | 0.00 | 78 | 1011.5 |
| 20260906000651 | 87 | 267 | 0.0 | 0.0 | 0.00 | 0.00 | 0.00 | 78 | 1011.4 |
| 20260906000151 | 87 | 267 | 0.0 | 0.0 | 0.00 | 0.00 | 0.00 | 77 | 1011.4 |
| 20260905235650 | 88 | 267 | 0.0 | 0.0 | 0.00 | 0.00 | 0.00 | 76 | 1011.3 |
| 20260905235148 | 88 | 267 | 0.0 | 0.0 | 0.00 | 0.00 | 0.00 | 74 | 1011.3 |
| 20260905234648 | 89 | 267 | 0.0 | 0.0 | 0.00 | 0.00 | 0.00 | 73 | 1011.3 |
| 20260905234146 | 89 | 267 | 0.0 | 0.0 | 0.00 | 0.00 | 0.00 | 72 | 1011.3 |
| 20260905233647 | 90 | 267 | 0.0 | 0.0 | 0.00 | 0.00 | 0.00 | 70 | 1011.3 |
| 20260905233147 | 90 | 267 | 0.0 | 0.0 | 0.00 | 0.00 | 0.00 | 69 | 1011.2 |
| 20260905232648 | 91 | 267 | 0.9 | 1.7 | 0.00 | 0.00 | 0.00 | 68 | 1011.1 |
| 20260905231645 | 91 | 267 | 1.7 | 6.1 | 0.00 | 0.00 | 0.00 | 68 | 1011.4 |
| 20260905230647 | 91 | 241 | 2.6 | 7.0 | 0.00 | 0.00 | 0.00 | 66 | 1011.3 |
| 20260905230145 | 91 | 240 | 2.6 | 7.0 | 0.00 | 0.00 | 0.00 | 66 | 1011.5 |
| 20260905225645 | 91 | 237 | 2.6 | 6.1 | 0.00 | 0.00 | 0.00 | 67 | 1011.5 |
| 20260905225139 | 91 | 271 | 2.6 | 6.1 | 0.00 | 0.00 | 0.00 | 67 | 1011.5 |
| 20260905224641 | 92 | 300 | 2.6 | 4.3 | 0.00 | 0.00 | 0.00 | 67 | 1011.5 |
| 20260905224137 | 91 | 29 | 2.6 | 7.0 | 0.00 | 0.00 | 0.00 | 67 | 1011.4 |
| 20260905223133 | 91 | 175 | 2.6 | 5.2 | 0.00 | 0.00 | 0.00 | 67 | 1011.3 |
| 20260905222133 | 91 | 268 | 2.6 | 5.2 | 0.00 | 0.00 | 0.00 | 66 | 1011.6 |
| 20260905221136 | 92 | 268 | 1.7 | 6.1 | 0.00 | 0.00 | 0.00 | 65 | 1011.5 |
| 20260905220628 | 92 | 262 | 1.7 | 5.2 | 0.00 | 0.00 | 0.00 | 66 | 1011.6 |
| 20260905215631 | 92 | 262 | 1.7 | 3.5 | 0.00 | 0.00 | 0.00 | 67 | 1011.6 |
| 20260905215132 | 91 | 261 | 3.5 | 7.8 | 0.00 | 0.00 | 0.00 | 65 | 1011.7 |
| 20260905214630 | 92 | 262 | 3.5 | 7.8 | 0.00 | 0.00 | 0.00 | 65 | 1011.7 |
| 20260905214130 | 92 | 270 | 1.7 | 7.0 | 0.00 | 0.00 | 0.00 | 65 | 1011.7 |
| 20260905213632 | 92 | 235 | 1.7 | 5.2 | 0.00 | 0.00 | 0.00 | 66 | 1011.7 |
| 20260905213139 | 91 | 259 | 2.6 | 5.2 | 0.00 | 0.00 | 0.00 | 66 | 1011.6 |
| 20260905212133 | 91 | 266 | 2.6 | 7.0 | 0.00 | 0.00 | 0.00 | 67 | 1011.6 |
| 20260905211635 | 92 | 266 | 2.6 | 7.0 | 0.00 | 0.00 | 0.00 | 66 | 1011.6 |
| 20260905211137 | 92 | 293 | 3.5 | 7.0 | 0.00 | 0.00 | 0.00 | 66 | 1011.5 |
| 20260905210631 | 91 | 241 | 3.5 | 7.8 | 0.00 | 0.00 | 0.00 | 67 | 1011.5 |
| 20260905205631 | 92 | 262 | 2.6 | 7.0 | 0.00 | 0.00 | 0.00 | 67 | 1011.4 |
| 20260905205127 | 91 | 239 | 3.5 | 6.1 | 0.00 | 0.00 | 0.00 | 67 | 1011.4 |
| 20260905204626 | 91 | 309 | 4.3 | 7.8 | 0.00 | 0.00 | 0.00 | 67 | 1011.5 |
| 20260905204126 | 91 | 288 | 3.5 | 7.8 | 0.00 | 0.00 | 0.00 | 67 | 1011.5 |
| 20260905203625 | 92 | 300 | 2.6 | 6.1 | 0.00 | 0.00 | 0.00 | 65 | 1011.5 |
| 20260905202625 | 91 | 284 | 2.6 | 8.7 | 0.00 | 0.00 | 0.00 | 67 | 1011.6 |
| 20260905201627 | 91 | 272 | 3.5 | 7.8 | 0.00 | 0.00 | 0.00 | 66 | 1011.7 |
| 20260905200617 | 91 | 232 | 3.5 | 7.0 | 0.00 | 0.00 | 0.00 | 66 | 1011.9 |
| 20260905200118 | 91 | 288 | 3.5 | 7.8 | 0.00 | 0.00 | 0.00 | 66 | 1012.0 |
| 20260905195110 | 90 | 243 | 3.5 | 7.0 | 0.00 | 0.00 | 0.00 | 69 | 1012.0 |
| 20260905194614 | 90 | 290 | 2.6 | 6.1 | 0.00 | 0.00 | 0.00 | 69 | 1012.0 |
| 20260905194113 | 90 | 231 | 2.6 | 6.1 | 0.00 | 0.00 | 0.00 | 68 | 1012.2 |
| 20260905193616 | 90 | 233 | 2.6 | 6.1 | 0.00 | 0.00 | 0.00 | 67 | 1012.2 |
| 20260905193102 | 90 | 292 | 2.6 | 7.0 | 0.00 | 0.00 | 0.00 | 69 | 1012.3 |
| 20260905192601 | 89 | 250 | 3.5 | 7.0 | 0.00 | 0.00 | 0.00 | 70 | 1012.5 |
| 20260905192103 | 89 | 277 | 3.5 | 7.0 | 0.00 | 0.00 | 0.00 | 70 | 1012.6 |
| 20260905191601 | 89 | 248 | 4.3 | 7.8 | 0.00 | 0.00 | 0.00 | 69 | 1012.7 |
| 20260905190602 | 89 | 210 | 3.5 | 7.0 | 0.00 | 0.00 | 0.00 | 72 | 1013.1 |
| 20260905185601 | 89 | 267 | 3.5 | 10.4 | 0.00 | 0.00 | 0.00 | 71 | 1013.2 |
| 20260905185102 | 88 | 270 | 3.5 | 8.7 | 0.00 | 0.00 | 0.00 | 71 | 1013.2 |
| 20260905184602 | 89 | 248 | 4.3 | 7.8 | 0.00 | 0.00 | 0.00 | 71 | 1013.2 |
| 20260905184106 | 89 | 245 | 4.3 | 8.7 | 0.00 | 0.00 | 0.00 | 72 | 1013.2 |
| 20260905183104 | 89 | 255 | 3.5 | 8.7 | 0.00 | 0.00 | 0.00 | 72 | 1013.3 |
| 20260905182603 | 88 | 266 | 4.3 | 8.7 | 0.00 | 0.00 | 0.00 | 73 | 1013.4 |
| 20260905181600 | 88 | 262 | 3.5 | 8.7 | 0.00 | 0.00 | 0.00 | 75 | 1013.4 |
| 20260905180602 | 88 | 304 | 4.3 | 8.7 | 0.00 | 0.00 | 0.00 | 74 | 1013.6 |
| 20260905175556 | 87 | 297 | 3.5 | 6.1 | 0.00 | 0.00 | 0.00 | 77 | 1013.7 |
| 20260905175105 | 86 | 249 | 3.5 | 7.8 | 0.00 | 0.00 | 0.00 | 76 | 1013.7 |
| 20260905174101 | 87 | 249 | 3.5 | 8.7 | 0.00 | 0.00 | 0.00 | 76 | 1014.0 |
| 20260905173559 | 87 | 223 | 2.6 | 8.7 | 0.00 | 0.00 | 0.00 | 78 | 1014.1 |
| 20260905173058 | 86 | 238 | 3.5 | 7.0 | 0.00 | 0.00 | 0.00 | 78 | 1014.2 |
| 20260905172553 | 86 | 272 | 3.5 | 7.8 | 0.00 | 0.00 | 0.00 | 79 | 1014.2 |
| 20260905172053 | 86 | 267 | 3.5 | 7.8 | 0.00 | 0.00 | 0.00 | 78 | 1014.2 |
| 20260905171550 | 86 | 241 | 2.6 | 6.1 | 0.00 | 0.00 | 0.00 | 78 | 1014.3 |
| 20260905170551 | 85 | 244 | 2.6 | 4.3 | 0.00 | 0.00 | 0.00 | 78 | 1014.4 |
| 20260905170051 | 86 | 237 | 1.7 | 6.1 | 0.00 | 0.00 | 0.00 | 77 | 1014.6 |
| 20260905165552 | 85 | 191 | 2.6 | 6.1 | 0.00 | 0.00 | 0.00 | 78 | 1014.5 |
| 20260905165052 | 85 | 236 | 2.6 | 6.1 | 0.00 | 0.00 | 0.00 | 80 | 1014.5 |
| 20260905164549 | 86 | 280 | 2.6 | 7.0 | 0.00 | 0.00 | 0.00 | 79 | 1014.7 |
| 20260905164045 | 85 | 285 | 3.5 | 7.0 | 0.00 | 0.00 | 0.00 | 79 | 1014.6 |
| 20260905163045 | 85 | 50 | 1.7 | 5.2 | 0.00 | 0.00 | 0.00 | 81 | 1014.7 |
| 20260905162545 | 84 | 237 | 1.7 | 3.5 | 0.00 | 0.00 | 0.00 | 81 | 1014.9 |
| 20260905161544 | 83 | 237 | 2.6 | 5.2 | 0.00 | 0.00 | 0.00 | 82 | 1014.9 |
| 20260905161044 | 83 | 237 | 2.6 | 5.2 | 0.00 | 0.00 | 0.00 | 83 | 1014.9 |
| 20260905160542 | 82 | 260 | 2.6 | 6.1 | 0.00 | 0.00 | 0.00 | 84 | 1015.0 |
| 20260905160043 | 82 | 261 | 3.5 | 6.1 | 0.00 | 0.00 | 0.00 | 84 | 1015.1 |
| 20260905155544 | 82 | 221 | 2.6 | 6.1 | 0.00 | 0.00 | 0.00 | 84 | 1015.2 |
| 20260905155049 | 82 | 272 | 2.6 | 7.0 | 0.00 | 0.00 | 0.00 | 84 | 1015.3 |
| 20260905154544 | 82 | 281 | 3.5 | 7.0 | 0.00 | 0.00 | 0.00 | 83 | 1015.4 |
| 20260905154042 | 82 | 263 | 2.6 | 6.1 | 0.00 | 0.00 | 0.00 | 83 | 1015.3 |
| 20260905152538 | 82 | 253 | 1.7 | 5.2 | 0.00 | 0.00 | 0.00 | 85 | 1015.5 |
| 20260905152052 | 81 | 284 | 1.7 | 3.5 | 0.00 | 0.00 | 0.00 | 86 | 1015.6 |
| 20260905151030 | 81 | 287 | 1.7 | 4.3 | 0.00 | 0.00 | 0.00 | 87 | 1015.6 |
| 20260905150532 | 81 | 287 | 2.6 | 6.1 | 0.00 | 0.00 | 0.00 | 87 | 1015.6 |
| 20260905145530 | 80 | 289 | 1.7 | 4.3 | 0.00 | 0.00 | 0.00 | 87 | 1015.7 |
| 20260905145030 | 80 | 289 | 2.6 | 4.3 | 0.00 | 0.00 | 0.00 | 88 | 1015.7 |
| 20260905144031 | 80 | 281 | 1.7 | 3.5 | 0.00 | 0.00 | 0.00 | 88 | 1015.7 |
| 20260905143530 | 80 | 281 | 1.7 | 4.3 | 0.00 | 0.00 | 0.00 | 88 | 1015.6 |
| 20260905143034 | 79 | 281 | 2.6 | 4.3 | 0.00 | 0.00 | 0.00 | 88 | 1015.6 |
| 20260905142533 | 80 | 281 | 2.6 | 4.3 | 0.00 | 0.00 | 0.00 | 89 | 1015.6 |
| 20260905142032 | 79 | 281 | 2.6 | 3.5 | 0.00 | 0.00 | 0.00 | 88 | 1015.7 |
| 20260905141547 | 79 | 281 | 2.6 | 6.1 | 0.00 | 0.00 | 0.00 | 89 | 1015.7 |
| 20260905141040 | 79 | 285 | 2.6 | 6.1 | 0.00 | 0.00 | 0.00 | 89 | 1015.6 |
| 20260905140035 | 79 | 289 | 3.5 | 7.0 | 0.00 | 0.00 | 0.00 | 89 | 1015.6 |
| 20260905135544 | 79 | 307 | 2.6 | 5.2 | 0.00 | 0.00 | 0.00 | 89 | 1015.6 |
| 20260905135030 | 79 | 286 | 1.7 | 4.3 | 0.00 | 0.00 | 0.00 | 90 | 1015.5 |
| 20260905134532 | 79 | 286 | 1.7 | 6.1 | 0.00 | 0.00 | 0.00 | 90 | 1015.6 |
| 20260905134033 | 79 | 286 | 1.7 | 6.1 | 0.00 | 0.00 | 0.00 | 91 | 1015.5 |
| 20260905133528 | 78 | 287 | 1.7 | 4.3 | 0.00 | 0.00 | 0.00 | 91 | 1015.5 |
| 20260905133049 | 78 | 289 | 2.6 | 4.3 | 0.00 | 0.00 | 0.00 | 91 | 1015.7 |
| 20260905132532 | 78 | 291 | 2.6 | 6.1 | 0.00 | 0.00 | 0.00 | 92 | 1015.7 |
| 20260905132044 | 78 | 297 | 3.5 | 6.1 | 0.00 | 0.00 | 0.00 | 92 | 1015.7 |
| 20260905131025 | 78 | 279 | 1.7 | 4.3 | 0.00 | 0.00 | 0.00 | 92 | 1015.7 |
| 20260905130526 | 78 | 280 | 2.6 | 5.2 | 0.00 | 0.00 | 0.00 | 93 | 1015.6 |
| 20260905130030 | 78 | 274 | 2.6 | 5.2 | 0.00 | 0.00 | 0.00 | 93 | 1015.6 |
| 20260905125516 | 77 | 266 | 2.6 | 5.2 | 0.00 | 0.00 | 0.00 | 93 | 1015.5 |
| 20260905125013 | 77 | 280 | 2.6 | 4.3 | 0.00 | 0.00 | 0.00 | 94 | 1015.3 |
| 20260905124514 | 77 | 289 | 1.7 | 3.5 | 0.00 | 0.00 | 0.00 | 94 | 1015.4 |
| 20260905124014 | 77 | 289 | 1.7 | 3.5 | 0.00 | 0.00 | 0.00 | 95 | 1015.4 |
| 20260905123512 | 77 | 290 | 1.7 | 3.5 | 0.00 | 0.00 | 0.00 | 95 | 1015.3 |
| 20260905123012 | 77 | 290 | 2.6 | 4.3 | 0.00 | 0.00 | 0.00 | 95 | 1015.3 |
| 20260905122512 | 77 | 290 | 2.6 | 4.3 | 0.00 | 0.00 | 0.00 | 95 | 1015.3 |
| 20260905122021 | 77 | 291 | 2.6 | 5.2 | 0.00 | 0.00 | 0.00 | 95 | 1015.3 |
| 20260905121516 | 77 | 295 | 3.5 | 6.1 | 0.00 | 0.00 | 0.00 | 95 | 1015.3 |